When you browse on this site, cookies collect data to enhance your experience and personalize the content and advertising you see.
Visit our Privacy Policy to learn more. By continuing to use the site, you agree to this use of cookies and data.
  • In Hungary
  • List of Countries
  • For 7 days
  • Water Temperature
  • Weather Map
  • News
  • Weather Widgets
  • user-avatar
    Login

    Hourly Weather Kyzyldala

    Today, 6 December, Friday

    Time Temperature Precipitation Wind Pressure Humidity
    00:00 +9°C° 2.6 mm 3 mps 725 mmHg 92%
    01:00 +8°C° 2.6 mm 3 mps 726 mmHg 93%
    02:00 +8°C° 2.6 mm 3 mps 726 mmHg 94%
    03:00 +7°C° 2.5 mm 3 mps 727 mmHg 94%
    04:00 +7°C° 2.5 mm 2 mps 727 mmHg 94%
    05:00 +6°C° 0 mm 2 mps 728 mmHg 94%
    06:00 +6°C° 0.5 mm 2 mps 728 mmHg 91%
    07:00 +6°C° 0.5 mm 2 mps 729 mmHg 89%
    08:00 +5°C° 0.5 mm 2 mps 730 mmHg 87%
    09:00 +5°C° 0.4 mm 2 mps 730 mmHg 88%
    10:00 +4°C° 0.4 mm 2 mps 731 mmHg 90%
    11:00 +5°C° 0 mm 1 mps 732 mmHg 91%
    12:00 +5°C° 0.1 mm 1 mps 732 mmHg 90%
    13:00 +5°C° 0.1 mm 1 mps 732 mmHg 90%
    14:00 +6°C° 0.1 mm 1 mps 732 mmHg 89%
    15:00 +6°C° 0.1 mm 1 mps 732 mmHg 88%
    16:00 +6°C° 0.1 mm 1 mps 732 mmHg 87%
    17:00 +4°C° 0 mm 2 mps 732 mmHg 85%
    18:00 +4°C° 0 mm 2 mps 732 mmHg 85%
    19:00 +4°C° 0 mm 2 mps 732 mmHg 84%
    20:00 +4°C° 0 mm 2 mps 732 mmHg 84%
    21:00 +5°C° 0 mm 1 mps 732 mmHg 85%
    22:00 +4°C° 0 mm 1 mps 732 mmHg 87%
    23:00 +4°C° 0 mm 1 mps 732 mmHg 88%

    Tomorrow, 7 December, Saturday

    Time Temperature Precipitation Wind Pressure Humidity
    00:00 +4°C° 0 mm 1 mps 732 mmHg 88%
    01:00 +4°C° 0 mm 1 mps 731 mmHg 88%
    02:00 +4°C° 0 mm 1 mps 731 mmHg 87%
    03:00 +4°C° 0 mm 1 mps 731 mmHg 87%
    04:00 +4°C° 0 mm 1 mps 731 mmHg 87%
    05:00 +4°C° 0 mm 1 mps 731 mmHg 86%
    06:00 +4°C° 0 mm 1 mps 731 mmHg 85%
    07:00 +4°C° 0 mm 1 mps 731 mmHg 83%
    08:00 +4°C° 0 mm 1 mps 731 mmHg 81%
    09:00 +6°C° 0 mm 1 mps 731 mmHg 75%
    10:00 +7°C° 0 mm 2 mps 731 mmHg 70%
    11:00 +8°C° 0 mm 2 mps 731 mmHg 64%
    12:00 +9°C° 0 mm 2 mps 730 mmHg 63%
    13:00 +10°C° 0 mm 2 mps 730 mmHg 61%
    14:00 +11°C° 0 mm 3 mps 729 mmHg 60%
    15:00 +10°C° 0 mm 2 mps 729 mmHg 65%
    16:00 +8°C° 0 mm 2 mps 729 mmHg 70%
    17:00 +7°C° 0 mm 2 mps 728 mmHg 75%
    18:00 +7°C° 0 mm 2 mps 728 mmHg 74%
    19:00 +7°C° 0 mm 1 mps 728 mmHg 74%
    20:00 +7°C° 0 mm 1 mps 728 mmHg 73%
    21:00 +7°C° 0 mm 1 mps 728 mmHg 72%
    22:00 +7°C° 0 mm 1 mps 728 mmHg 71%
    23:00 +7°C° 0 mm 1 mps 728 mmHg 71%

    Day after tomorrow, 8 December, Sunday

    Time Temperature Precipitation Wind Pressure Humidity
    00:00 +6°C° 0 mm 1 mps 728 mmHg 69%
    01:00 +6°C° 0 mm 1 mps 727 mmHg 68%
    02:00 +6°C° 0 mm 1 mps 727 mmHg 67%
    03:00 +6°C° 0 mm 1 mps 727 mmHg 65%
    04:00 +6°C° 0 mm 1 mps 726 mmHg 63%
    05:00 +6°C° 0 mm 1 mps 726 mmHg 61%
    06:00 +6°C° 0 mm 1 mps 726 mmHg 60%
    07:00 +6°C° 0 mm 1 mps 726 mmHg 59%
    08:00 +6°C° 0 mm 1 mps 726 mmHg 58%
    09:00 +8°C° 0 mm 1 mps 726 mmHg 53%
    10:00 +10°C° 0 mm 1 mps 726 mmHg 47%
    11:00 +12°C° 0 mm 1 mps 726 mmHg 42%
    12:00 +13°C° 0 mm 2 mps 726 mmHg 41%
    13:00 +14°C° 0 mm 2 mps 725 mmHg 40%
    14:00 +14°C° 0 mm 2 mps 724 mmHg 39%
    15:00 +13°C° 0 mm 2 mps 724 mmHg 44%
    16:00 +10°C° 0 mm 2 mps 724 mmHg 50%
    17:00 +10°C° 0 mm 1 mps 723 mmHg 56%
    18:00 +9°C° 0 mm 1 mps 723 mmHg 56%
    19:00 +9°C° 0 mm 1 mps 723 mmHg 56%
    20:00 +8°C° 0 mm 1 mps 722 mmHg 57%
    21:00 +8°C° 0 mm 1 mps 722 mmHg 55%
    22:00 +8°C° 0 mm 1 mps 722 mmHg 54%
    23:00 +8°C° 0 mm 1 mps 721 mmHg 53%

    9 December, Monday

    Time Temperature Precipitation Wind Pressure Humidity
    00:00 +8°C° 0 mm 1 mps 721 mmHg 51%
    01:00 +8°C° 0 mm 1 mps 721 mmHg 50%
    02:00 +8°C° 0 mm 1 mps 720 mmHg 48%
    03:00 +8°C° 0 mm 1 mps 720 mmHg 46%
    04:00 +8°C° 0 mm 1 mps 720 mmHg 45%
    05:00 +8°C° 0 mm 1 mps 720 mmHg 43%
    06:00 +8°C° 0 mm 1 mps 720 mmHg 42%
    07:00 +8°C° 0 mm 1 mps 720 mmHg 41%
    08:00 +8°C° 0 mm 1 mps 720 mmHg 40%
    09:00 +10°C° 0 mm 1 mps 720 mmHg 38%
    10:00 +10°C° 0 mm 0 mps 720 mmHg 35%
    11:00 +12°C° 0 mm 0 mps 720 mmHg 33%
    12:00 +13°C° 0 mm 0 mps 720 mmHg 33%
    13:00 +13°C° 0 mm 0 mps 720 mmHg 33%
    14:00 +14°C° 0 mm 0 mps 720 mmHg 33%
    15:00 +13°C° 0 mm 0 mps 719 mmHg 35%
    16:00 +11°C° 0 mm 0 mps 719 mmHg 38%
    17:00 +10°C° 0 mm 0 mps 719 mmHg 40%
    18:00 +11°C° 0 mm 1 mps 719 mmHg 39%
    19:00 +11°C° 0 mm 1 mps 720 mmHg 38%
    20:00 +11°C° 0 mm 1 mps 720 mmHg 38%
    21:00 +11°C° 0 mm 1 mps 720 mmHg 37%
    22:00 +11°C° 0 mm 1 mps 720 mmHg 37%
    23:00 +10°C° 0 mm 1 mps 721 mmHg 36%

    10 December, Tuesday

    Time Temperature Precipitation Wind Pressure Humidity
    00:00 +10°C° 0 mm 1 mps 721 mmHg 36%
    01:00 +9°C° 0 mm 2 mps 721 mmHg 36%
    02:00 +9°C° 0 mm 2 mps 721 mmHg 35%
    03:00 +9°C° 0 mm 2 mps 721 mmHg 35%
    04:00 +9°C° 0 mm 2 mps 720 mmHg 35%
    05:00 +9°C° 0 mm 2 mps 720 mmHg 34%
    06:00 +9°C° 0 mm 2 mps 720 mmHg 34%
    07:00 +9°C° 0 mm 2 mps 721 mmHg 34%
    08:00 +9°C° 0 mm 2 mps 721 mmHg 34%
    09:00 +12°C° 0 mm 1 mps 721 mmHg 33%
    10:00 +13°C° 0 mm 1 mps 721 mmHg 32%
    11:00 +13°C° 0 mm 0 mps 722 mmHg 31%
    12:00 +15°C° 0 mm 1 mps 721 mmHg 33%
    13:00 +15°C° 0 mm 1 mps 721 mmHg 35%
    14:00 +15°C° 0 mm 1 mps 721 mmHg 38%
    15:00 +14°C° 0 mm 1 mps 721 mmHg 41%
    16:00 +13°C° 0 mm 1 mps 721 mmHg 44%
    17:00 +12°C° 0 mm 1 mps 721 mmHg 47%
    18:00 +12°C° 0 mm 1 mps 721 mmHg 47%
    19:00 +12°C° 0 mm 1 mps 721 mmHg 48%
    20:00 +12°C° 0 mm 1 mps 721 mmHg 49%
    21:00 +12°C° 0 mm 1 mps 721 mmHg 50%
    22:00 +11°C° 0 mm 1 mps 721 mmHg 52%
    23:00 +10°C° 0 mm 0 mps 721 mmHg 54%

    11 December, Wednesday

    Time Temperature Precipitation Wind Pressure Humidity
    00:00 +11°C° 0 mm 1 mps 721 mmHg 55%
    01:00 +11°C° 0 mm 1 mps 721 mmHg 57%
    02:00 +11°C° 0 mm 1 mps 720 mmHg 59%
    03:00 +9°C° 0 mm 2 mps 720 mmHg 60%
    04:00 +9°C° 0 mm 2 mps 720 mmHg 61%
    05:00 +8°C° 0 mm 2 mps 719 mmHg 62%
    06:00 +8°C° 0 mm 2 mps 719 mmHg 62%
    07:00 +8°C° 0 mm 2 mps 719 mmHg 63%
    08:00 +8°C° 0 mm 2 mps 719 mmHg 64%
    09:00 +10°C° 0 mm 2 mps 719 mmHg 58%
    10:00 +12°C° 0 mm 1 mps 719 mmHg 52%
    11:00 +14°C° 0 mm 1 mps 719 mmHg 46%
    12:00 +14°C° 0 mm 1 mps 719 mmHg 45%
    13:00 +15°C° 0 mm 2 mps 718 mmHg 43%
    14:00 +15°C° 0 mm 2 mps 718 mmHg 42%
    15:00 +14°C° 0 mm 2 mps 717 mmHg 46%
    16:00 +12°C° 0 mm 1 mps 717 mmHg 51%
    17:00 +11°C° 0 mm 1 mps 716 mmHg 55%
    18:00 +11°C° 0 mm 1 mps 716 mmHg 55%
    19:00 +10°C° 0 mm 1 mps 716 mmHg 54%
    20:00 +10°C° 0 mm 1 mps 716 mmHg 54%
    21:00 +9°C° 0 mm 1 mps 716 mmHg 55%
    22:00 +8°C° 0 mm 2 mps 715 mmHg 57%
    23:00 +8°C° 0 mm 2 mps 715 mmHg 59%
    Show more